Regional Weather Roundup
Issued by NWS

Home | Current Version | Previous Version | Graphics & Text | Print | Product List | Glossary On
Versions: 1 2 3 4 5 6 7 8 9 10 11 12 13 14 15 16 17 18 19 20 21 22 23 24 25 26 27 28 29 30 31 32 33 34 35 36 37 38 39 40 41 42 43 44 45 46 47 48 49 50
000
ASUS45 KCYS 120810
RWRWY

WYOMING REGIONAL WEATHER ROUNDUP
NATIONAL WEATHER SERVICE CHEYENNE WY
100 AM MST FRI FEB 12 2016

NOTE:  "FAIR" INDICATES FEW OR NO CLOUDS BELOW 12,000 FEET
WITH NO SIGNIFICANT WEATHER AND/OR OBSTRUCTIONS TO VISIBILITY.

WYZ001-120900-
YELLOWSTONE NATIONAL PARK

CITY           SKY/WX    TMP DP  RH WIND       PRES   REMARKS
LK YELLOWSTONE   N/A     30  26  85 CALM      30.35F
W YELLOWSTONE  NOT AVBL

$$
WYZ002>013-054>058-071-098>099-120900-
NORTHERN WYOMING

CITY           SKY/WX    TMP DP  RH WIND       PRES   REMARKS
JACKSON        CLOUDY    32  32 100 N10       30.35F WCI  24
CODY           CLOUDY    39  18  41 S3        30.24S
GREYBULL       CLOUDY    39  28  64 S5        30.23S
WORLAND        CLOUDY    35  29  78 S5        30.22F WCI  31
SHERIDAN       FAIR      35  25  66 SE6       30.25S WCI  30
BUFFALO        FAIR      40  25  55 NW10      30.25S WCI  33
GILLETTE       FAIR      30  24  78 CALM      30.24S
HULETT         FAIR      32  30  93 W10       30.25R WCI  24
NEWCASTLE      FAIR      32  28  86 N9        30.24S WCI  24

$$
WYZ014>020-022>026-101>103-120900-
CENTRAL WYOMING

CITY           SKY/WX    TMP DP  RH WIND       PRES   REMARKS
BIG PINEY      FAIR      25  21  85 N8        30.38R WCI  16
PINEDALE         N/A     25  23  93 W6        30.37F WCI  18
DUBOIS         CLOUDY    34  32  93 NW16      30.27F WCI  23
LANDER         FAIR      36  24  62 SW6       30.22S WCI  31
RIVERTON       FAIR      32  23  69 CALM      30.24S
CASPER         FAIR      34  25  69 W7        30.24F WCI  28
DOUGLAS        FAIR      27  25  92 CALM      30.25F

$$
WYZ021-027>030-104>119-120900-
SOUTHERN WYOMING

CITY           SKY/WX    TMP DP  RH WIND       PRES   REMARKS
EVANSTON       FAIR      36  15  42 CALM      30.38S
FORT BRIDGER   SUNNY     34  21  60 W8        30.39F WCI  27
ROCK SPRINGS   FAIR      34  19  54 W13       30.35S WCI  25
DIXON          FAIR      21  15  77 SE6       30.40F WCI  14
RAWLINS        CLOUDY    36  21  54 SW9       30.30F WCI  29
SARATOGA       CLOUDY    32  23  69 S10       30.34F WCI  24
LARAMIE        FAIR      34  22  61 NW3       30.29S
CHEYENNE       FAIR      31  24  75 NW3       30.26F
TORRINGTON     FAIR      32  26  78 W5        30.23F WCI  27
PINE BLUFFS    FAIR      32  27  80 SW7       30.26F WCI  26

$$



USA.gov is the U.S. government's official web portal to all federal, state and local government web resources and services.